DW9768 Stavanger NO current weather conditions

sailwx.info

Wind from 173 at 6 knots gusting 12

Air temperature 15.0° C
Dewpoint 13.2° C

Last reported at 2019-Aug-22 02:17 UTC.
Time now 2019-Aug-22 03:03 UTC

Location: N 59°02' E 005°39'.
View on Google Maps.

See reports from other nearby stations

  
Tides and Currents Weather Stations Pressure Air Temp Water Temp Dewpoint Dewpoint Depression Visibility Wind Speed Wind Dir Waves Ship Positions
date/time (UTC)wind fromknots sea level pressurealtimeterstation pressurevisibilityair tempwater tempwave heightnotes
2019-Aug-22 02:17 173 6 gusting 12 15.0
2019-Aug-22 02:01 172 6 gusting 10 15.0
2019-Aug-22 01:46 168 3 gusting 8 15.0
2019-Aug-22 01:32 156 3 gusting 8 14.4
2019-Aug-22 01:16 171 2 gusting 8 14.4
2019-Aug-22 01:01 165 2 gusting 8 13.9
2019-Aug-22 00:46 150 4 gusting 8 13.9
2019-Aug-22 00:31 158 4 gusting 9 14.4
2019-Aug-22 00:16 175 7 gusting 13 14.4
2019-Aug-22 00:00 198 6 gusting 12 15.0
2019-Aug-21 23:46 195 4 gusting 10 15.0
2019-Aug-21 23:31 169 6 gusting 13 15.0
2019-Aug-21 23:15 185 7 gusting 13 15.0
2019-Aug-21 23:00 174 7 gusting 13 15.0
2019-Aug-21 22:45 189 6 gusting 13 15.0
2019-Aug-21 22:30 190 6 gusting 11 15.0
2019-Aug-21 22:15 182 3 gusting 7 15.0
2019-Aug-21 22:00 178 3 gusting 6 15.0
2019-Aug-21 21:45 165 3 gusting 6 15.0
2019-Aug-21 21:30 159 2 gusting 7 15.0
2019-Aug-21 21:15 167 3 gusting 10 15.0
2019-Aug-21 21:00 178 5 gusting 11 15.0
2019-Aug-21 20:45 191 6 gusting 9 15.0
2019-Aug-21 20:30 178 5 gusting 11 15.0
2019-Aug-21 20:15 165 2 gusting 7 15.0
2019-Aug-21 20:00 171 4 gusting 8 15.0
2019-Aug-21 19:45 193 5 gusting 9 15.0
2019-Aug-21 19:30 177 5 gusting 10 15.6
2019-Aug-21 19:15 180 5 gusting 8 15.6
2019-Aug-21 19:00 195 5 gusting 8 15.6
2019-Aug-21 18:45 200 6 gusting 9 15.6
2019-Aug-21 18:30 168 3 gusting 9 15.6
2019-Aug-21 18:15 195 4 gusting 6 15.6
2019-Aug-21 18:00 211 2 gusting 6 15.6
2019-Aug-21 17:45 221 4 gusting 7 16.1
2019-Aug-21 17:30 205 5 gusting 8 16.1
2019-Aug-21 17:15 217 6 gusting 8 16.1
2019-Aug-21 17:00 207 5 gusting 6 16.1
2019-Aug-21 16:45 222 4 gusting 6 16.1
2019-Aug-21 16:30 210 2 gusting 6 15.6
2019-Aug-21 16:17 207 4 gusting 6 15.6
2019-Aug-21 16:01 271 4 gusting 7 15.6
2019-Aug-21 15:47 277 5 gusting 7 15.6
2019-Aug-21 15:32 271 6 gusting 7 15.6
2019-Aug-21 15:17 269 5 gusting 7 15.0
2019-Aug-21 15:01 263 5 gusting 7 15.6
2019-Aug-21 14:47 267 4 gusting 8 15.0
2019-Aug-21 14:31 262 6 gusting 8 15.0
2019-Aug-21 14:17 248 3 gusting 9 15.0
2019-Aug-21 14:01 277 5 gusting 8 15.0
2019-Aug-21 13:47 248 5 gusting 9 15.0
2019-Aug-21 13:31 252 5 gusting 10 15.0
2019-Aug-21 13:16 249 5 gusting 8 15.0
2019-Aug-21 13:01 248 4 gusting 9 15.0
2019-Aug-21 12:46 269 5 gusting 7 15.0
2019-Aug-21 12:31 289 4 gusting 6 15.0
2019-Aug-21 12:16 265 3 gusting 6 15.0
2019-Aug-21 12:01 283 4 gusting 10 14.4
2019-Aug-21 11:46 271 5 gusting 8 15.0
2019-Aug-21 11:31 286 0 gusting 6 14.4
2019-Aug-21 11:15 298 4 gusting 6 14.4
2019-Aug-21 11:01 303 2 gusting 6 14.4
2019-Aug-21 10:47 289 5 gusting 7 14.4
2019-Aug-21 10:31 290 5 gusting 7 14.4
2019-Aug-21 10:16 284 3 gusting 7 14.4
2019-Aug-21 10:00 291 3 gusting 7 14.4
2019-Aug-21 09:45 315 2 gusting 8 13.9
2019-Aug-21 09:31 298 13.9
2019-Aug-21 09:16 311 13.9
2019-Aug-21 09:00 311 13.9
2019-Aug-21 08:46 311 13.3
2019-Aug-21 08:31 311 1 gusting 3 13.3
2019-Aug-21 08:15 323 13.3
2019-Aug-21 08:00 323 13.3
2019-Aug-21 07:45 323 13.3
2019-Aug-21 07:30 323 12.8
2019-Aug-21 07:15 323 12.8
2019-Aug-21 07:00 323 0 gusting 4 12.8
2019-Aug-21 06:45 017 12.8
2019-Aug-21 06:30 017 12.8
2019-Aug-21 06:15 017 12.8
2019-Aug-21 06:00 017 12.8
2019-Aug-21 05:45 017 12.2
2019-Aug-21 05:30 017 12.2
2019-Aug-21 05:15 017 12.2
2019-Aug-21 05:00 017 12.2
2019-Aug-21 04:32 017 12.2
2019-Aug-21 04:16 018 12.2
2019-Aug-21 04:01 005 12.2
2019-Aug-21 03:46 337 2 gusting 5 12.2
2019-Aug-21 03:31 347 12.2
2019-Aug-21 03:17 355 1 gusting 5 12.2
2019-Aug-21 03:01 360 3 gusting 8 12.2
2019-Aug-21 02:46 350 1 gusting 6 12.2
2019-Aug-21 02:32 327 3 gusting 6 11.7
2019-Aug-21 02:16 346 11.7
2019-Aug-21 02:01 346 11.7
2019-Aug-21 01:46 346 11.1
2019-Aug-21 01:31 346 11.1
2019-Aug-21 01:15 346 11.1
2019-Aug-21 01:02 346 11.7
2019-Aug-21 00:45 346 11.7
2019-Aug-21 00:31 346 0 gusting 3 12.2
2019-Aug-21 00:16 345 0 gusting 4 12.8
2019-Aug-21 00:01 015 1 gusting 5 12.8
2019-Aug-20 23:46 344 1 gusting 4 12.8
2019-Aug-20 23:30 347 12.8
2019-Aug-20 23:16 355 12.8
2019-Aug-20 23:01 351 12.8
2019-Aug-20 22:46 355 1 gusting 5 12.8
2019-Aug-20 22:30 005 12.8
2019-Aug-20 22:15 005 1 gusting 5 13.3
2019-Aug-20 22:00 320 4 gusting 8 13.3
2019-Aug-20 21:45 338 1 gusting 6 13.3
2019-Aug-20 21:30 350 1 gusting 6 13.9
2019-Aug-20 21:15 341 2 gusting 5 13.3
2019-Aug-20 21:00 348 2 gusting 6 13.3
2019-Aug-20 20:45 350 1 gusting 5 13.3
2019-Aug-20 20:30 355 1 gusting 4 13.3
2019-Aug-20 20:15 355 1 gusting 4 13.3
2019-Aug-20 20:00 360 1 gusting 3 13.3
2019-Aug-20 19:45 355 1 gusting 5 13.3
2019-Aug-20 19:32 355 2 gusting 6 13.3
2019-Aug-20 19:16 316 2 gusting 6 13.3
2019-Aug-20 19:01 314 1 gusting 6 13.3
2019-Aug-20 18:47 350 2 gusting 6 13.3
2019-Aug-20 18:31 333 2 gusting 6 13.9
2019-Aug-20 18:16 338 3 gusting 10 13.9
2019-Aug-20 18:01 330 4 gusting 7 13.9
2019-Aug-20 17:46 337 3 gusting 6 13.9
2019-Aug-20 17:31 300 4 gusting 9 13.9
2019-Aug-20 17:17 355 4 gusting 9 13.9
2019-Aug-20 17:01 304 6 gusting 10 13.9
2019-Aug-20 16:46 311 5 gusting 11 13.9
2019-Aug-20 16:31 331 5 gusting 11 13.3
2019-Aug-20 16:16 346 4 gusting 7 13.3
2019-Aug-20 16:01 336 6 gusting 11 13.3
2019-Aug-20 15:46 321 4 gusting 10 13.3
2019-Aug-20 15:31 327 5 gusting 12 12.8
2019-Aug-20 15:16 349 7 gusting 13 12.8
2019-Aug-20 15:01 265 4 gusting 6 13.3
2019-Aug-20 14:45 281 3 gusting 9 12.8
2019-Aug-20 14:31 282 7 gusting 11 13.3
2019-Aug-20 14:16 284 8 gusting 13 13.9
2019-Aug-20 14:00 301 13 gusting 17 14.4
2019-Aug-20 13:45 274 6 gusting 11 14.4
2019-Aug-20 13:31 284 7 gusting 12 15.0
2019-Aug-20 13:15 281 8 gusting 12 15.0
2019-Aug-20 13:01 262 8 gusting 14 15.0
2019-Aug-20 12:45 269 8 gusting 12 15.0
2019-Aug-20 12:30 258 9 gusting 13 15.0
2019-Aug-20 12:15 279 9 gusting 14 15.0
2019-Aug-20 12:00 276 10 gusting 13 15.0
2019-Aug-20 11:32 292 10 gusting 13 15.0
2019-Aug-20 11:18 284 9 gusting 13 15.0
2019-Aug-20 11:02 285 7 gusting 10 15.0
2019-Aug-20 10:47 271 6 gusting 10 14.4
2019-Aug-20 10:32 251 5 gusting 10 13.9
2019-Aug-20 10:16 248 6 gusting 12 13.9
2019-Aug-20 10:01 261 6 gusting 10 14.4
2019-Aug-20 09:46 292 10 gusting 15 14.4
2019-Aug-20 09:31 266 6 gusting 8 14.4
2019-Aug-20 09:17 277 6 gusting 9 14.4
2019-Aug-20 09:01 268 10 gusting 14 14.4
2019-Aug-20 08:46 287 5 gusting 10 14.4
2019-Aug-20 08:31 263 7 gusting 11 15.0
2019-Aug-20 08:17 267 7 gusting 9 14.4
2019-Aug-20 08:01 249 6 gusting 11 14.4
2019-Aug-20 07:46 277 9 gusting 15 13.9
2019-Aug-20 07:30 277 9 gusting 15 14.4
2019-Aug-20 07:16 286 10 gusting 13 15.6
2019-Aug-20 07:01 267 9 gusting 13 15.6
2019-Aug-20 06:46 250 7 gusting 12 15.6
2019-Aug-20 06:31 250 9 gusting 14 15.0
2019-Aug-20 06:15 263 10 gusting 13 15.0
2019-Aug-20 06:00 237 10 gusting 15 15.6
2019-Aug-20 05:45 223 8 gusting 13 15.6
2019-Aug-20 05:30 224 8 gusting 14 15.6
2019-Aug-20 05:15 250 10 gusting 17 15.6
2019-Aug-20 05:00 225 10 gusting 13 15.6
2019-Aug-20 04:45 257 10 gusting 15 15.6
2019-Aug-20 04:30 257 8 gusting 13 15.6
2019-Aug-20 04:15 243 6 gusting 13 15.6
2019-Aug-20 04:00 250 7 gusting 13 15.6
2019-Aug-20 03:45 253 10 gusting 15 15.6
2019-Aug-20 03:30 244 9 gusting 13 15.6
2019-Aug-20 03:15 244 10 gusting 14 15.6
2019-Aug-20 03:00 258 10 gusting 14 15.6